Time,TemperatureF,DewpointF,PressureIn,WindDirection,WindDirectionDegrees,WindSpeedMPH,WindSpeedGustMPH,Humidity,HourlyPrecipIn,Conditions,Clouds,dailyrainin,SoftwareType,DateUTC
2013-12-13 00:08:00,80.1,75.0,29.89,ESE,113,4.0,10.0,84,0.00,,,0.00,weatherlink.com 1.10,2013-12-13 04:08:00,
2013-12-13 00:23:00,80.2,75.0,29.89,ENE,69,3.0,11.0,84,0.00,,,0.00,weatherlink.com 1.10,2013-12-13 04:23:00,
2013-12-13 00:38:00,80.2,75.0,29.88,ESE,123,2.0,10.0,84,0.00,,,0.00,weatherlink.com 1.10,2013-12-13 04:38:00,
2013-12-13 00:53:00,80.2,75.0,29.88,East,84,6.0,10.0,84,0.00,,,0.00,weatherlink.com 1.10,2013-12-13 04:53:00,
2013-12-13 01:08:00,80.1,75.0,29.87,ESE,107,4.0,12.0,83,0.00,,,0.00,weatherlink.com 1.10,2013-12-13 05:08:00,
2013-12-13 01:23:00,80.1,75.0,29.87,ENE,59,1.0,11.0,84,0.00,,,0.00,weatherlink.com 1.10,2013-12-13 05:23:00,
2013-12-13 01:38:00,80.1,75.0,29.86,NE,51,8.0,11.0,84,0.00,,,0.00,weatherlink.com 1.10,2013-12-13 05:38:00,
2013-12-13 01:53:00,79.9,75.0,29.86,East,90,5.0,11.0,84,0.00,,,0.00,weatherlink.com 1.10,2013-12-13 05:53:00,
2013-12-13 02:08:00,79.8,74.0,29.85,ENE,65,3.0,13.0,83,0.00,,,0.00,weatherlink.com 1.10,2013-12-13 06:08:00,
2013-12-13 02:23:00,79.6,74.0,29.85,ENE,71,3.0,10.0,83,0.00,,,0.00,weatherlink.com 1.10,2013-12-13 06:23:00,
2013-12-13 02:38:00,79.8,75.0,29.85,ENE,76,2.0,10.0,84,0.00,,,0.00,weatherlink.com 1.10,2013-12-13 06:38:00,
2013-12-13 02:53:00,79.8,74.0,29.84,ENE,67,5.0,12.0,82,0.00,,,0.00,weatherlink.com 1.10,2013-12-13 06:53:00,
2013-12-13 03:08:00,79.6,74.0,29.84,ESE,105,4.0,9.0,83,0.00,,,0.00,weatherlink.com 1.10,2013-12-13 07:08:00,
2013-12-13 03:23:00,79.5,74.0,29.84,ENE,67,2.0,11.0,83,0.00,,,0.00,weatherlink.com 1.10,2013-12-13 07:23:00,
2013-12-13 03:38:00,79.3,73.0,29.84,ENE,74,3.0,7.0,82,0.00,,,0.00,weatherlink.com 1.10,2013-12-13 07:38:00,
2013-12-13 03:53:00,79.3,73.0,29.84,ESE,104,2.0,10.0,82,0.00,,,0.00,weatherlink.com 1.10,2013-12-13 07:53:00,
2013-12-13 04:08:00,79.2,74.0,29.84,ESE,117,3.0,9.0,83,0.00,,,0.00,weatherlink.com 1.10,2013-12-13 08:08:00,
2013-12-13 04:23:00,79.1,74.0,29.84,ESE,117,7.0,9.0,83,0.00,,,0.00,weatherlink.com 1.10,2013-12-13 08:23:00,
2013-12-13 04:38:00,78.9,73.0,29.84,ESE,114,4.0,9.0,82,0.00,,,0.00,weatherlink.com 1.10,2013-12-13 08:38:00,
2013-12-13 04:53:00,79.0,73.0,29.84,East,92,10.0,12.0,82,0.00,,,0.00,weatherlink.com 1.10,2013-12-13 08:53:00,
2013-12-13 05:08:00,79.3,73.0,29.84,ESE,105,2.0,13.0,82,0.00,,,0.00,weatherlink.com 1.10,2013-12-13 09:08:00,
2013-12-13 05:23:00,78.9,73.0,29.85,East,101,5.0,7.0,83,0.00,,,0.00,weatherlink.com 1.10,2013-12-13 09:23:00,
2013-12-13 05:38:00,78.9,73.0,29.85,East,81,5.0,9.0,83,0.00,,,0.00,weatherlink.com 1.10,2013-12-13 09:38:00,
2013-12-13 05:53:00,79.1,74.0,29.86,East,93,2.0,7.0,83,0.00,,,0.00,weatherlink.com 1.10,2013-12-13 09:53:00,
2013-12-13 06:08:00,79.0,74.0,29.86,East,95,3.0,10.0,83,0.00,,,0.00,weatherlink.com 1.10,2013-12-13 10:08:00,
2013-12-13 06:23:00,79.1,74.0,29.86,ESE,105,1.0,8.0,84,0.00,,,0.00,weatherlink.com 1.10,2013-12-13 10:23:00,
2013-12-13 06:38:00,78.9,74.0,29.86,ENE,67,2.0,7.0,85,0.00,,,0.00,weatherlink.com 1.10,2013-12-13 10:38:00,
2013-12-13 06:53:00,78.9,74.0,29.87,East,85,1.0,7.0,86,0.00,,,0.00,weatherlink.com 1.10,2013-12-13 10:53:00,
2013-12-13 07:08:00,79.0,75.0,29.87,ESE,103,5.0,9.0,86,0.00,,,0.00,weatherlink.com 1.10,2013-12-13 11:08:00,
2013-12-13 07:23:00,79.3,75.0,29.87,ENE,74,1.0,11.0,85,0.00,,,0.00,weatherlink.com 1.10,2013-12-13 11:23:00,
2013-12-13 07:38:00,79.5,75.0,29.88,ESE,104,4.0,14.0,85,0.00,,,0.00,weatherlink.com 1.10,2013-12-13 11:38:00,
2013-12-13 07:53:00,80.2,75.0,29.89,East,89,5.0,9.0,85,0.00,,,0.00,weatherlink.com 1.10,2013-12-13 11:53:00,
2013-12-13 08:08:00,80.3,75.0,29.89,ESE,117,4.0,9.0,84,0.00,,,0.00,weatherlink.com 1.10,2013-12-13 12:08:00,
2013-12-13 08:24:00,80.6,75.0,29.90,ENE,72,2.0,13.0,84,0.00,,,0.00,weatherlink.com 1.10,2013-12-13 12:24:00,
2013-12-13 08:39:00,82.5,76.0,29.91,ESE,113,10.0,15.0,80,0.00,,,0.00,weatherlink.com 1.10,2013-12-13 12:39:00,
2013-12-13 08:54:00,83.1,75.0,29.91,SE,140,7.0,14.0,77,0.00,,,0.00,weatherlink.com 1.10,2013-12-13 12:54:00,
2013-12-13 09:09:00,83.9,74.0,29.91,ESE,121,3.0,14.0,73,0.00,,,0.00,weatherlink.com 1.10,2013-12-13 13:09:00,
2013-12-13 09:24:00,84.1,75.0,29.91,SE,133,4.0,21.0,75,0.00,,,0.00,weatherlink.com 1.10,2013-12-13 13:24:00,
2013-12-13 09:39:00,84.7,75.0,29.92,East,91,6.0,17.0,72,0.00,,,0.00,weatherlink.com 1.10,2013-12-13 13:39:00,
2013-12-13 09:54:00,85.2,75.0,29.92,East,95,8.0,14.0,72,0.00,,,0.00,weatherlink.com 1.10,2013-12-13 13:54:00,
2013-12-13 10:09:00,85.3,76.0,29.92,SE,141,6.0,15.0,73,0.00,,,0.00,weatherlink.com 1.10,2013-12-13 14:09:00,
2013-12-13 10:24:00,85.6,76.0,29.92,ESE,105,10.0,16.0,73,0.00,,,0.00,weatherlink.com 1.10,2013-12-13 14:24:00,
2013-12-13 10:39:00,87.0,76.0,29.92,East,80,8.0,16.0,70,0.00,,,0.00,weatherlink.com 1.10,2013-12-13 14:39:00,
2013-12-13 10:54:00,85.3,76.0,29.91,NE,46,7.0,15.0,73,0.00,,,0.00,weatherlink.com 1.10,2013-12-13 14:54:00,
2013-12-13 11:09:00,85.7,76.0,29.90,SE,128,5.0,16.0,72,0.00,,,0.00,weatherlink.com 1.10,2013-12-13 15:09:00,
2013-12-13 11:24:00,86.0,76.0,29.90,SE,134,9.0,18.0,72,0.00,,,0.00,weatherlink.com 1.10,2013-12-13 15:24:00,
2013-12-13 11:39:00,87.0,77.0,29.89,SE,131,3.0,15.0,71,0.00,,,0.00,weatherlink.com 1.10,2013-12-13 15:39:00,
2013-12-13 11:54:00,86.9,76.0,29.89,SE,125,9.0,15.0,70,0.00,,,0.00,weatherlink.com 1.10,2013-12-13 15:54:00,
2013-12-13 12:09:00,86.8,77.0,29.88,SE,136,4.0,14.0,72,0.00,,,0.00,weatherlink.com 1.10,2013-12-13 16:09:00,
2013-12-13 12:24:00,87.2,76.0,29.87,SE,128,5.0,19.0,69,0.00,,,0.00,weatherlink.com 1.10,2013-12-13 16:24:00,
2013-12-13 12:39:00,87.0,76.0,29.86,ESE,108,4.0,15.0,70,0.00,,,0.00,weatherlink.com 1.10,2013-12-13 16:39:00,
2013-12-13 12:54:00,86.1,76.0,29.86,East,82,10.0,14.0,72,0.00,,,0.00,weatherlink.com 1.10,2013-12-13 16:54:00,
2013-12-13 13:09:00,84.9,75.0,29.85,SE,125,9.0,18.0,73,0.00,,,0.00,weatherlink.com 1.10,2013-12-13 17:09:00,
2013-12-13 13:24:00,84.9,75.0,29.84,ESE,110,12.0,17.0,73,0.00,,,0.00,weatherlink.com 1.10,2013-12-13 17:24:00,
2013-12-13 13:39:00,85.9,76.0,29.83,SE,140,4.0,16.0,72,0.00,,,0.00,weatherlink.com 1.10,2013-12-13 17:39:00,
2013-12-13 13:54:00,87.3,76.0,29.83,East,94,15.0,15.0,68,0.00,,,0.00,weatherlink.com 1.10,2013-12-13 17:54:00,
2013-12-13 14:09:00,85.7,76.0,29.82,East,81,2.0,17.0,73,0.00,,,0.00,weatherlink.com 1.10,2013-12-13 18:09:00,
2013-12-13 14:24:00,86.4,75.0,29.82,ENE,71,2.0,15.0,69,0.00,,,0.00,weatherlink.com 1.10,2013-12-13 18:24:00,
2013-12-13 14:39:00,85.8,75.0,29.82,ESE,106,7.0,13.0,71,0.00,,,0.00,weatherlink.com 1.10,2013-12-13 18:39:00,
2013-12-13 14:54:00,86.8,76.0,29.82,ESE,114,7.0,18.0,70,0.00,,,0.00,weatherlink.com 1.10,2013-12-13 18:54:00,
2013-12-13 15:09:00,84.5,76.0,29.81,East,83,3.0,13.0,76,0.00,,,0.00,weatherlink.com 1.10,2013-12-13 19:09:00,
2013-12-13 15:24:00,84.3,76.0,29.81,ESE,102,3.0,12.0,76,0.00,,,0.00,weatherlink.com 1.10,2013-12-13 19:24:00,
2013-12-13 15:39:00,84.6,76.0,29.81,ESE,109,10.0,14.0,76,0.00,,,0.00,weatherlink.com 1.10,2013-12-13 19:39:00,
2013-12-13 15:54:00,84.7,76.0,29.81,ENE,76,4.0,15.0,74,0.00,,,0.00,weatherlink.com 1.10,2013-12-13 19:54:00,
2013-12-13 16:09:00,85.3,76.0,29.81,ENE,60,5.0,16.0,73,0.00,,,0.00,weatherlink.com 1.10,2013-12-13 20:09:00,
2013-12-13 16:24:00,83.9,76.0,29.81,ESE,115,10.0,12.0,76,0.00,,,0.00,weatherlink.com 1.10,2013-12-13 20:24:00,
2013-12-13 16:39:00,83.4,76.0,29.81,ESE,104,8.0,14.0,78,0.00,,,0.00,weatherlink.com 1.10,2013-12-13 20:39:00,
2013-12-13 16:54:00,83.3,76.0,29.81,SSE,156,5.0,12.0,78,0.00,,,0.00,weatherlink.com 1.10,2013-12-13 20:54:00,
2013-12-13 17:09:00,82.8,75.0,29.81,ESE,102,5.0,14.0,78,0.00,,,0.00,weatherlink.com 1.10,2013-12-13 21:09:00,
2013-12-13 17:24:00,82.3,76.0,29.81,ENE,61,5.0,16.0,80,0.00,,,0.00,weatherlink.com 1.10,2013-12-13 21:24:00,
2013-12-13 17:39:00,82.1,75.0,29.82,SE,126,10.0,13.0,79,0.00,,,0.00,weatherlink.com 1.10,2013-12-13 21:39:00,
2013-12-13 17:54:00,81.9,75.0,29.82,East,82,9.0,15.0,80,0.00,,,0.00,weatherlink.com 1.10,2013-12-13 21:54:00,
2013-12-13 18:09:00,81.7,75.0,29.82,ESE,111,9.0,13.0,81,0.00,,,0.00,weatherlink.com 1.10,2013-12-13 22:09:00,
2013-12-13 18:24:00,81.4,75.0,29.83,East,90,1.0,10.0,82,0.00,,,0.00,weatherlink.com 1.10,2013-12-13 22:24:00,
2013-12-13 18:39:00,81.2,75.0,29.83,ESE,113,16.0,16.0,82,0.00,,,0.00,weatherlink.com 1.10,2013-12-13 22:39:00,
2013-12-13 18:54:00,81.2,75.0,29.83,ENE,66,8.0,15.0,82,0.00,,,0.00,weatherlink.com 1.10,2013-12-13 22:54:00,
2013-12-13 19:09:00,81.0,75.0,29.84,East,95,3.0,12.0,82,0.00,,,0.00,weatherlink.com 1.10,2013-12-13 23:09:00,
2013-12-13 19:24:00,80.7,75.0,29.84,East,97,8.0,14.0,82,0.00,,,0.00,weatherlink.com 1.10,2013-12-13 23:24:00,
2013-12-13 19:39:00,80.6,74.0,29.85,ESE,119,4.0,12.0,81,0.00,,,0.00,weatherlink.com 1.10,2013-12-13 23:39:00,
2013-12-13 19:54:00,80.6,75.0,29.85,ESE,117,2.0,13.0,82,0.00,,,0.00,weatherlink.com 1.10,2013-12-13 23:54:00,
2013-12-13 20:09:00,80.4,75.0,29.86,SE,128,2.0,13.0,82,0.00,,,0.00,weatherlink.com 1.10,2013-12-14 00:09:00,
2013-12-13 20:24:00,80.3,74.0,29.86,ESE,102,8.0,15.0,81,0.00,,,0.00,weatherlink.com 1.10,2013-12-14 00:24:00,
2013-12-13 20:39:00,80.4,75.0,29.87,SE,130,5.0,14.0,82,0.00,,,0.00,weatherlink.com 1.10,2013-12-14 00:39:00,
2013-12-13 20:54:00,80.3,74.0,29.88,ESE,113,7.0,13.0,82,0.00,,,0.00,weatherlink.com 1.10,2013-12-14 00:54:00,
2013-12-13 21:09:00,80.4,75.0,29.89,East,93,7.0,16.0,83,0.00,,,0.00,weatherlink.com 1.10,2013-12-14 01:09:00,
2013-12-13 21:24:00,80.4,75.0,29.89,ENE,78,5.0,12.0,83,0.00,,,0.00,weatherlink.com 1.10,2013-12-14 01:24:00,
2013-12-13 21:39:00,80.5,75.0,29.90,ESE,103,9.0,13.0,84,0.00,,,0.00,weatherlink.com 1.10,2013-12-14 01:39:00,
2013-12-13 21:54:00,80.5,75.0,29.90,East,96,7.0,13.0,83,0.00,,,0.00,weatherlink.com 1.10,2013-12-14 01:54:00,
2013-12-13 22:09:00,80.6,75.0,29.90,East,101,7.0,13.0,83,0.00,,,0.00,weatherlink.com 1.10,2013-12-14 02:09:00,
2013-12-13 22:24:00,80.6,75.0,29.90,ESE,116,9.0,13.0,84,0.00,,,0.00,weatherlink.com 1.10,2013-12-14 02:24:00,
2013-12-13 22:39:00,80.8,76.0,29.90,ENE,69,5.0,14.0,84,0.00,,,0.00,weatherlink.com 1.10,2013-12-14 02:39:00,
2013-12-13 22:54:00,80.9,76.0,29.90,ESE,123,4.0,14.0,84,0.00,,,0.00,weatherlink.com 1.10,2013-12-14 02:54:00,
2013-12-13 23:10:00,81.0,76.0,29.91,ESE,113,2.0,14.0,84,0.00,,,0.00,weatherlink.com 1.10,2013-12-14 03:10:00,
2013-12-13 23:25:00,81.2,76.0,29.91,East,86,6.0,13.0,84,0.00,,,0.00,weatherlink.com 1.10,2013-12-14 03:25:00,
2013-12-13 23:40:00,81.2,76.0,29.90,East,86,5.0,17.0,84,0.00,,,0.00,weatherlink.com 1.10,2013-12-14 03:40:00,
2013-12-13 23:55:00,81.2,76.0,29.90,ESE,123,11.0,17.0,83,0.00,,,0.00,weatherlink.com 1.10,2013-12-14 03:55:00,